COOK73 FTTY-LEGE

Flight info

Callsign COOK73
Flight time N/A
Altitude 38000
Route ILDOR UG655 GARIN M214 SEB G655 FARES UG655 NAMAT UG869 ROGBA UZ147 DIMAO UG6 SALMA DCT MORSS DCT AGENA L16 BGR
Aircraft C25C/M-SDE2E3FGHRWXY/LB1

Departure

Time 2026-05-08 21:44
Airport Faya-Largeau Airport (FTTY)

Arrival

Time N/A
Airport Girona-Costa Brava Airport (LEGE)
Time Latitude Longitude Altitude Speed Heading
2026-05-08 21:30 17.91790 19.10776 771 ft 0 kts 219°
2026-05-08 21:36 17.91798 19.10783 771 ft 2 kts 212°
2026-05-08 21:37 17.91808 19.10784 771 ft 2 kts 147°
2026-05-08 21:37 17.91814 19.10780 771 ft 0 kts 145°
2026-05-08 21:38 17.91809 19.10783 771 ft 1 kts 145°
2026-05-08 21:38 17.91799 19.10790 771 ft 3 kts 147°
2026-05-08 21:39 17.91770 19.10808 771 ft 7 kts 157°
2026-05-08 21:39 17.91715 19.10822 771 ft 9 kts 150°
2026-05-08 21:39 17.91663 19.10857 773 ft 8 kts 148°
2026-05-08 21:39 17.91609 19.10867 773 ft 8 kts 201°
2026-05-08 21:40 17.91565 19.10818 772 ft 11 kts 236°
2026-05-08 21:40 17.91517 19.10738 770 ft 15 kts 238°
2026-05-08 21:40 17.91453 19.10631 769 ft 19 kts 237°
2026-05-08 21:41 17.91318 19.10402 764 ft 24 kts 238°
2026-05-08 21:41 17.91210 19.10221 762 ft 15 kts 238°
2026-05-08 21:41 17.91154 19.10126 761 ft 15 kts 236°
2026-05-08 21:41 17.91081 19.10080 761 ft 10 kts 198°
2026-05-08 21:42 17.91067 19.10026 761 ft 9 kts 317°
2026-05-08 21:42 17.91106 19.10041 761 ft 7 kts 68°
2026-05-08 21:42 17.91115 19.10059 761 ft 0 kts 57°
2026-05-08 21:43 17.91117 19.10063 761 ft 7 kts 57°
2026-05-08 21:43 17.91272 19.10322 763 ft 85 kts 58°
2026-05-08 21:43 17.91698 19.11024 1006 ft 132 kts 57°
2026-05-08 21:43 17.92306 19.11973 1358 ft 176 kts 54°
2026-05-08 21:44 17.93189 19.12965 2083 ft 190 kts 29°
2026-05-08 21:44 17.94006 19.13246 2858 ft 187 kts 18°
2026-05-08 21:44 17.95349 19.13156 3677 ft 207 kts 345°
2026-05-08 21:44 17.96689 19.12517 4591 ft 214 kts 342°
2026-05-08 21:45 17.98063 19.11830 5472 ft 220 kts 340°
2026-05-08 21:45 17.99445 19.11128 6438 ft 222 kts 340°
2026-05-08 21:45 18.00837 19.10433 7366 ft 221 kts 341°
2026-05-08 21:45 18.02225 19.09747 8305 ft 221 kts 340°
2026-05-08 21:46 18.03614 19.09061 9250 ft 221 kts 339°
2026-05-08 21:46 18.05000 19.08372 10145 ft 220 kts 339°
2026-05-08 21:46 18.06399 19.07679 10911 ft 225 kts 339°
2026-05-08 21:46 18.07825 19.06971 11692 ft 228 kts 339°
2026-05-08 21:47 18.09274 19.06252 12456 ft 232 kts 338°
2026-05-08 21:47 18.10748 19.05521 13204 ft 236 kts 338°
2026-05-08 21:47 18.12250 19.04775 13930 ft 240 kts 338°
2026-05-08 21:47 18.13775 19.04018 14589 ft 244 kts 338°
2026-05-08 21:48 18.15322 19.03246 15253 ft 248 kts 338°
2026-05-08 21:48 18.16898 19.02465 15920 ft 252 kts 338°
2026-05-08 21:48 18.18499 19.01671 16597 ft 256 kts 338°
2026-05-08 21:48 18.20102 19.00873 17246 ft 260 kts 338°
2026-05-08 21:49 18.21755 19.00051 17908 ft 264 kts 338°
2026-05-08 21:49 18.23430 18.99216 18510 ft 268 kts 338°
2026-05-08 21:49 18.25126 18.98374 19096 ft 271 kts 337°
2026-05-08 21:49 18.26842 18.97521 19679 ft 274 kts 337°
2026-05-08 21:50 18.28572 18.96658 20269 ft 277 kts 337°
2026-05-08 21:50 18.30322 18.95789 20849 ft 280 kts 337°
2026-05-08 21:50 18.32088 18.94909 21428 ft 283 kts 336°
2026-05-08 21:50 18.33878 18.94017 22010 ft 286 kts 336°
2026-05-08 21:51 18.35684 18.93118 22592 ft 288 kts 335°
2026-05-08 21:51 18.37507 18.92209 23174 ft 292 kts 335°
2026-05-08 21:51 18.39352 18.91291 23706 ft 295 kts 335°
2026-05-08 21:51 18.41203 18.90367 24234 ft 294 kts 335°
2026-05-08 21:52 18.43048 18.89448 24822 ft 293 kts 334°
2026-05-08 21:52 18.44887 18.88531 25387 ft 292 kts 334°
2026-05-08 21:52 18.46730 18.87611 25906 ft 294 kts 334°
2026-05-08 21:52 18.48587 18.86684 26426 ft 295 kts 334°
2026-05-08 21:53 18.50426 18.85768 26946 ft 296 kts 334°
2026-05-08 21:53 18.52293 18.84837 27485 ft 297 kts 334°
2026-05-08 21:53 18.54163 18.83901 28023 ft 298 kts 334°
2026-05-08 21:53 18.56038 18.82965 28593 ft 297 kts 334°
2026-05-08 21:54 18.57896 18.82038 29252 ft 294 kts 334°
2026-05-08 21:54 18.59735 18.81120 29910 ft 291 kts 334°
2026-05-08 21:54 18.61558 18.80208 30489 ft 288 kts 334°
2026-05-08 21:54 18.63357 18.79309 31048 ft 284 kts 333°
2026-05-08 21:55 18.65134 18.78421 31627 ft 281 kts 333°
2026-05-08 21:55 18.66885 18.77545 32193 ft 277 kts 333°
2026-05-08 21:55 18.68615 18.76679 32738 ft 274 kts 333°
2026-05-08 21:56 18.72019 18.74976 33835 ft 267 kts 333°
2026-05-08 21:56 18.73689 18.74140 34320 ft 264 kts 333°
2026-05-08 21:56 18.75343 18.73312 34770 ft 262 kts 333°
2026-05-08 21:56 18.76985 18.72490 35222 ft 260 kts 333°
2026-05-08 21:57 18.78613 18.71674 35677 ft 258 kts 332°
2026-05-08 21:57 18.80227 18.70866 36123 ft 256 kts 332°
2026-05-08 21:57 18.81810 18.70074 36547 ft 254 kts 332°
2026-05-08 21:57 18.83399 18.69276 36967 ft 252 kts 332°
2026-05-08 21:58 18.84980 18.68484 37387 ft 250 kts 332°
2026-05-08 21:58 18.86549 18.67698 37798 ft 249 kts 332°
2026-05-08 21:58 18.88135 18.66900 37923 ft 257 kts 331°
2026-05-08 21:58 18.89788 18.66069 37957 ft 268 kts 332°
2026-05-08 21:59 18.91509 18.65206 37967 ft 280 kts 332°
2026-05-08 21:59 18.93303 18.64306 37973 ft 291 kts 332°
2026-05-08 21:59 18.95168 18.63369 37970 ft 301 kts 332°
2026-05-08 22:00 18.99080 18.61407 37970 ft 321 kts 332°
2026-05-08 22:00 19.03213 18.59330 37970 ft 337 kts 332°
2026-05-08 22:01 19.07521 18.57167 37969 ft 346 kts 332°
2026-05-08 22:01 19.11894 18.54965 37973 ft 350 kts 332°
2026-05-08 22:02 19.16324 18.52736 37973 ft 354 kts 332°
2026-05-08 22:02 19.20767 18.50499 37967 ft 357 kts 332°
2026-05-08 22:03 19.25272 18.48229 37972 ft 360 kts 332°
2026-05-08 22:03 19.29803 18.45945 37970 ft 361 kts 332°
2026-05-08 22:04 19.34350 18.43650 37981 ft 363 kts 332°
2026-05-08 22:04 19.38920 18.41343 37979 ft 364 kts 332°
2026-05-08 22:05 19.43499 18.39030 37982 ft 365 kts 332°
2026-05-08 22:05 19.48081 18.36714 37992 ft 365 kts 332°
2026-05-08 22:06 19.52671 18.34393 37997 ft 366 kts 332°
2026-05-08 22:06 19.57267 18.32067 38000 ft 366 kts 332°
2026-05-08 22:07 19.61859 18.29741 38006 ft 366 kts 332°
2026-05-08 22:07 19.66453 18.27412 38010 ft 366 kts 332°
2026-05-08 22:08 19.71048 18.25083 38016 ft 366 kts 332°
2026-05-08 22:08 19.75619 18.22765 38018 ft 366 kts 332°
2026-05-08 22:09 19.80215 18.20430 38009 ft 366 kts 332°
2026-05-08 22:09 19.84806 18.18098 38014 ft 366 kts 332°
2026-05-08 22:10 19.89403 18.15760 38015 ft 366 kts 332°
2026-05-08 22:10 19.94001 18.13422 38013 ft 367 kts 332°
2026-05-08 22:11 19.98603 18.11078 38016 ft 367 kts 331°
2026-05-08 22:11 20.03208 18.08733 38014 ft 367 kts 331°
2026-05-08 22:12 20.07810 18.06388 38011 ft 366 kts 331°
2026-05-08 22:12 20.12410 18.04041 38011 ft 367 kts 331°
2026-05-08 22:13 20.17009 18.01697 38012 ft 366 kts 331°
2026-05-08 22:13 20.21658 17.99446 38012 ft 367 kts 332°
2026-05-08 22:14 20.26294 17.97171 38019 ft 367 kts 332°
2026-05-08 22:14 20.30912 17.94908 38020 ft 368 kts 332°
2026-05-08 22:15 20.35565 17.92629 38031 ft 368 kts 332°
2026-05-08 22:15 20.40221 17.90342 38032 ft 368 kts 332°
2026-05-08 22:16 20.44883 17.88055 38039 ft 369 kts 332°
2026-05-08 22:16 20.49544 17.85765 38058 ft 369 kts 332°
2026-05-08 22:17 20.54205 17.83474 38056 ft 369 kts 332°
2026-05-08 22:17 20.58861 17.81184 38071 ft 369 kts 332°
2026-05-08 22:18 20.63520 17.78890 38082 ft 368 kts 332°
2026-05-08 22:18 20.68178 17.76596 38082 ft 368 kts 332°
2026-05-08 22:19 20.72817 17.74309 38088 ft 367 kts 332°
2026-05-08 22:19 20.77462 17.72019 38093 ft 368 kts 331°
2026-05-08 22:20 20.82079 17.69739 38096 ft 368 kts 331°
2026-05-08 22:20 20.86724 17.67445 38101 ft 368 kts 331°
2026-05-08 22:21 20.91371 17.65149 38096 ft 368 kts 331°
2026-05-08 22:21 20.96024 17.62849 38090 ft 369 kts 331°
2026-05-08 22:22 21.00685 17.60540 38084 ft 370 kts 331°
2026-05-08 22:22 21.05363 17.58224 38087 ft 371 kts 331°
2026-05-08 22:23 21.10044 17.55904 38083 ft 371 kts 331°
2026-05-08 22:23 21.14724 17.53584 38077 ft 370 kts 331°
2026-05-08 22:24 21.19401 17.51262 38073 ft 370 kts 331°
2026-05-08 22:24 21.24076 17.48940 38064 ft 370 kts 331°
2026-05-08 22:25 21.28748 17.46618 38055 ft 370 kts 331°
2026-05-08 22:25 21.33387 17.44311 38051 ft 370 kts 331°
2026-05-08 22:26 21.38059 17.41986 38049 ft 370 kts 331°
2026-05-08 22:26 21.42732 17.39660 38041 ft 370 kts 331°
2026-05-08 22:27 21.47399 17.37332 38041 ft 370 kts 330°
2026-05-08 22:27 21.52067 17.35006 38034 ft 369 kts 330°
2026-05-08 22:28 21.56735 17.32675 38029 ft 370 kts 330°
2026-05-08 22:28 21.61412 17.30338 38030 ft 371 kts 330°
2026-05-08 22:29 21.66096 17.27997 38032 ft 371 kts 330°
2026-05-08 22:29 21.70783 17.25654 38033 ft 372 kts 330°
2026-05-08 22:30 21.75473 17.23306 38025 ft 372 kts 330°
2026-05-08 22:30 21.79368 17.21354 38028 ft 372 kts 330°
2026-05-08 22:31 21.84823 17.18620 38020 ft 372 kts 330°
2026-05-08 22:31 21.89518 17.16265 38012 ft 372 kts 330°
2026-05-08 22:32 21.94216 17.13908 38015 ft 372 kts 330°
2026-05-08 22:32 21.98121 17.11946 38008 ft 373 kts 330°
2026-05-08 22:33 22.02820 17.09571 38003 ft 372 kts 329°
2026-05-08 22:33 22.07501 17.07172 37993 ft 373 kts 329°
2026-05-08 22:34 22.12191 17.04783 37998 ft 373 kts 329°
2026-05-08 22:34 22.16876 17.02388 37995 ft 372 kts 329°
2026-05-08 22:35 22.21564 16.99991 37991 ft 372 kts 329°
2026-05-08 22:35 22.26245 16.97596 37987 ft 372 kts 329°
2026-05-08 22:36 22.30928 16.95199 37989 ft 372 kts 329°
2026-05-08 22:36 22.35604 16.92804 37983 ft 372 kts 329°
2026-05-08 22:37 22.40242 16.90425 37984 ft 371 kts 329°
2026-05-08 22:37 22.44909 16.88029 37982 ft 371 kts 329°
2026-05-08 22:38 22.49593 16.85624 37980 ft 371 kts 329°
2026-05-08 22:38 22.54260 16.83227 37980 ft 371 kts 329°
2026-05-08 22:39 22.58921 16.80828 37982 ft 371 kts 329°
2026-05-08 22:39 22.63552 16.78446 37978 ft 371 kts 329°
2026-05-08 22:40 22.68215 16.76044 37978 ft 371 kts 329°
2026-05-08 22:40 22.72874 16.73642 37980 ft 371 kts 329°
2026-05-08 22:41 22.77535 16.71237 37979 ft 371 kts 329°
2026-05-08 22:41 22.82195 16.68833 37978 ft 371 kts 329°
2026-05-08 22:42 22.86853 16.66426 37980 ft 371 kts 329°
2026-05-08 22:42 22.91512 16.64016 37983 ft 371 kts 329°
2026-05-08 22:43 22.96166 16.61608 37984 ft 371 kts 329°
2026-05-08 22:43 23.00822 16.59198 37982 ft 371 kts 329°
2026-05-08 22:44 23.05475 16.56787 37980 ft 370 kts 329°
2026-05-08 22:44 23.10128 16.54373 37989 ft 370 kts 329°
2026-05-08 22:45 23.14778 16.51959 37987 ft 370 kts 329°
2026-05-08 22:45 23.19430 16.49544 37990 ft 370 kts 329°
2026-05-08 22:46 23.24074 16.47129 37992 ft 370 kts 329°
2026-05-08 22:46 23.28721 16.44711 37996 ft 370 kts 329°
2026-05-08 22:47 23.33368 16.42293 37998 ft 370 kts 329°
2026-05-08 22:47 23.38013 16.39872 37988 ft 370 kts 328°
2026-05-08 22:48 23.42657 16.37450 38000 ft 370 kts 328°
2026-05-08 22:48 23.47302 16.35027 38003 ft 370 kts 329°
2026-05-08 22:49 23.51949 16.32600 38000 ft 370 kts 328°
2026-05-08 22:49 23.58917 16.28957 38005 ft 370 kts 328°
2026-05-08 22:50 23.63535 16.26540 38007 ft 371 kts 328°
2026-05-08 22:50 23.68180 16.24106 38008 ft 370 kts 329°
2026-05-08 22:51 23.72833 16.21669 38008 ft 370 kts 328°
2026-05-08 22:51 23.77479 16.19233 38008 ft 370 kts 329°
2026-05-08 22:52 23.82121 16.16794 38018 ft 370 kts 328°
2026-05-08 22:52 23.86769 16.14352 38020 ft 370 kts 328°
2026-05-08 22:53 23.91412 16.11912 38021 ft 371 kts 328°
2026-05-08 22:53 23.96057 16.09468 38025 ft 370 kts 328°
2026-05-08 22:54 24.00699 16.07022 38027 ft 370 kts 328°